• In Uzbekistan
  • List of Countries
  • For 7 days
  • Water Temperature
  • Satellite Maps
  • Weather Map
  • Weather Widgets
  • user-avatar
    Login

    Hourly Weather Kapuvar

    Today, 20 November, Monday

    Time Temperature Precipitation Wind Pressure Humidity
    00:00 +1°C° 0 mm 4 mps 751 mmHg 76%
    01:00 +1°C° 0 mm 4 mps 751 mmHg 76%
    02:00 +1°C° 0 mm 4 mps 751 mmHg 75%
    03:00 +1°C° 0 mm 4 mps 751 mmHg 74%
    04:00 +1°C° 0 mm 4 mps 751 mmHg 73%
    05:00 +1°C° 0.1 mm 4 mps 751 mmHg 73%
    06:00 +1°C° 0.1 mm 4 mps 752 mmHg 72%
    07:00 +3°C° 0.1 mm 4 mps 752 mmHg 72%
    08:00 +3°C° 0.1 mm 5 mps 752 mmHg 68%
    09:00 +3°C° 0.1 mm 6 mps 753 mmHg 65%
    10:00 +4°C° 0.1 mm 7 mps 753 mmHg 61%
    11:00 +5°C° 0.1 mm 7 mps 753 mmHg 58%
    12:00 +6°C° 0.1 mm 7 mps 753 mmHg 55%
    13:00 +6°C° 0.1 mm 8 mps 753 mmHg 52%
    14:00 +5°C° 0 mm 6 mps 753 mmHg 55%
    15:00 +6°C° 0 mm 5 mps 753 mmHg 58%
    16:00 +5°C° 0 mm 4 mps 753 mmHg 61%
    17:00 +5°C° 0 mm 4 mps 753 mmHg 62%
    18:00 +4°C° 0 mm 4 mps 753 mmHg 63%
    19:00 +4°C° 0 mm 4 mps 753 mmHg 64%
    20:00 +4°C° 0.2 mm 3 mps 753 mmHg 66%
    21:00 +4°C° 0.2 mm 3 mps 753 mmHg 68%
    22:00 +5°C° 0.2 mm 2 mps 753 mmHg 70%
    23:00 +5°C° 0.2 mm 2 mps 753 mmHg 72%

    Tomorrow, 21 November, Tuesday

    Time Temperature Precipitation Wind Pressure Humidity
    00:00 +4°C° 0.2 mm 2 mps 752 mmHg 74%
    01:00 +4°C° 0.2 mm 2 mps 752 mmHg 75%
    02:00 +4°C° 0.4 mm 2 mps 751 mmHg 76%
    03:00 +3°C° 0.4 mm 3 mps 750 mmHg 76%
    04:00 +3°C° 0.4 mm 3 mps 750 mmHg 77%
    05:00 +3°C° 0.2 mm 3 mps 749 mmHg 76%
    06:00 +3°C° 0.2 mm 3 mps 749 mmHg 75%
    07:00 +3°C° 0.2 mm 4 mps 749 mmHg 75%
    08:00 +5°C° 0.1 mm 4 mps 749 mmHg 71%
    09:00 +6°C° 0.1 mm 4 mps 749 mmHg 68%
    10:00 +7°C° 0.1 mm 5 mps 749 mmHg 65%
    11:00 +8°C° 0.1 mm 5 mps 749 mmHg 65%
    12:00 +9°C° 0.1 mm 5 mps 749 mmHg 65%
    13:00 +9°C° 0.1 mm 5 mps 749 mmHg 65%
    14:00 +10°C° 0.1 mm 4 mps 749 mmHg 68%
    15:00 +10°C° 0.1 mm 4 mps 749 mmHg 70%
    16:00 +8°C° 0.1 mm 4 mps 749 mmHg 72%
    17:00 +8°C° 0 mm 4 mps 750 mmHg 74%
    18:00 +8°C° 0 mm 3 mps 750 mmHg 76%
    19:00 +8°C° 0 mm 3 mps 750 mmHg 78%
    20:00 +8°C° 0.2 mm 3 mps 750 mmHg 79%
    21:00 +8°C° 0.2 mm 3 mps 750 mmHg 80%
    22:00 +8°C° 0.2 mm 3 mps 751 mmHg 81%
    23:00 +8°C° 0.3 mm 3 mps 751 mmHg 82%

    Day after tomorrow, 22 November, Wednesday

    Time Temperature Precipitation Wind Pressure Humidity
    00:00 +8°C° 0.3 mm 3 mps 751 mmHg 83%
    01:00 +8°C° 0.3 mm 3 mps 751 mmHg 84%
    02:00 +8°C° 0.1 mm 3 mps 751 mmHg 83%
    03:00 +8°C° 0.1 mm 2 mps 751 mmHg 83%
    04:00 +7°C° 0.1 mm 2 mps 751 mmHg 82%
    05:00 +7°C° 0 mm 2 mps 751 mmHg 82%
    06:00 +7°C° 0 mm 2 mps 751 mmHg 83%
    07:00 +6°C° 0 mm 2 mps 752 mmHg 83%
    08:00 +7°C° 0 mm 2 mps 752 mmHg 78%
    09:00 +9°C° 0 mm 2 mps 752 mmHg 73%
    10:00 +10°C° 0 mm 2 mps 752 mmHg 68%
    11:00 +12°C° 0 mm 2 mps 752 mmHg 65%
    12:00 +13°C° 0 mm 2 mps 752 mmHg 63%
    13:00 +14°C° 0 mm 2 mps 752 mmHg 60%
    14:00 +13°C° 0 mm 2 mps 752 mmHg 65%
    15:00 +12°C° 0 mm 2 mps 752 mmHg 71%
    16:00 +10°C° 0 mm 2 mps 752 mmHg 76%
    17:00 +9°C° 0 mm 2 mps 752 mmHg 79%
    18:00 +8°C° 0 mm 2 mps 752 mmHg 81%
    19:00 +8°C° 0 mm 2 mps 752 mmHg 84%
    20:00 +8°C° 0 mm 2 mps 752 mmHg 84%
    21:00 +8°C° 0 mm 1 mps 752 mmHg 84%
    22:00 +8°C° 0 mm 1 mps 753 mmHg 84%
    23:00 +8°C° 0 mm 1 mps 753 mmHg 84%

    23 November, Thursday

    Time Temperature Precipitation Wind Pressure Humidity
    00:00 +8°C° 0 mm 1 mps 753 mmHg 84%
    01:00 +7°C° 0 mm 1 mps 753 mmHg 85%
    02:00 +7°C° 0 mm 1 mps 753 mmHg 85%
    03:00 +6°C° 0 mm 2 mps 753 mmHg 85%
    04:00 +6°C° 0 mm 2 mps 753 mmHg 85%
    05:00 +7°C° 0 mm 1 mps 753 mmHg 85%
    06:00 +6°C° 0 mm 1 mps 753 mmHg 85%
    07:00 +6°C° 0 mm 1 mps 754 mmHg 85%
    08:00 +7°C° 0 mm 1 mps 754 mmHg 81%
    09:00 +9°C° 0 mm 1 mps 755 mmHg 77%
    10:00 +10°C° 0 mm 1 mps 755 mmHg 72%
    11:00 +11°C° 0 mm 1 mps 755 mmHg 68%
    12:00 +12°C° 0 mm 1 mps 755 mmHg 64%
    13:00 +13°C° 0 mm 1 mps 755 mmHg 61%
    14:00 +12°C° 0 mm 1 mps 755 mmHg 65%
    15:00 +11°C° 0 mm 1 mps 755 mmHg 69%
    16:00 +10°C° 0 mm 1 mps 755 mmHg 74%
    17:00 +9°C° 0 mm 1 mps 756 mmHg 75%
    18:00 +9°C° 0 mm 1 mps 756 mmHg 76%
    19:00 +9°C° 0 mm 1 mps 756 mmHg 77%
    20:00 +8°C° 0 mm 1 mps 756 mmHg 77%
    21:00 +8°C° 0 mm 1 mps 757 mmHg 77%
    22:00 +8°C° 0 mm 1 mps 757 mmHg 76%
    23:00 +8°C° 0 mm 1 mps 757 mmHg 76%

    24 November, Friday

    Time Temperature Precipitation Wind Pressure Humidity
    00:00 +8°C° 0 mm 1 mps 757 mmHg 76%
    01:00 +7°C° 0 mm 1 mps 757 mmHg 76%
    02:00 +7°C° 0 mm 1 mps 757 mmHg 76%
    03:00 +6°C° 0 mm 0 mps 757 mmHg 76%
    04:00 +6°C° 0 mm 0 mps 757 mmHg 77%
    05:00 +7°C° 0 mm 1 mps 757 mmHg 77%
    06:00 +6°C° 0 mm 1 mps 757 mmHg 77%
    07:00 +6°C° 0 mm 1 mps 757 mmHg 78%
    08:00 +7°C° 0 mm 1 mps 757 mmHg 73%
    09:00 +9°C° 0 mm 1 mps 757 mmHg 69%
    10:00 +10°C° 0 mm 1 mps 758 mmHg 65%
    11:00 +11°C° 0 mm 1 mps 757 mmHg 62%
    12:00 +12°C° 0 mm 1 mps 757 mmHg 59%
    13:00 +13°C° 0 mm 2 mps 757 mmHg 56%
    14:00 +12°C° 0 mm 2 mps 757 mmHg 61%
    15:00 +10°C° 0 mm 2 mps 757 mmHg 67%
    16:00 +9°C° 0 mm 2 mps 757 mmHg 72%
    17:00 +8°C° 0 mm 2 mps 757 mmHg 75%
    18:00 +8°C° 0 mm 2 mps 757 mmHg 78%
    19:00 +7°C° 0 mm 2 mps 757 mmHg 82%
    20:00 +7°C° 0 mm 3 mps 757 mmHg 84%
    21:00 +5°C° 0 mm 3 mps 757 mmHg 85%
    22:00 +5°C° 0 mm 3 mps 757 mmHg 87%
    23:00 +5°C° 0 mm 3 mps 757 mmHg 88%

    25 November, Saturday

    Time Temperature Precipitation Wind Pressure Humidity
    00:00 +5°C° 0 mm 3 mps 757 mmHg 89%
    01:00 +5°C° 0 mm 3 mps 757 mmHg 90%
    02:00 +5°C° 0 mm 3 mps 757 mmHg 91%
    03:00 +4°C° 0 mm 3 mps 757 mmHg 91%
    04:00 +4°C° 0 mm 3 mps 756 mmHg 92%
    05:00 +4°C° 0 mm 3 mps 756 mmHg 92%
    06:00 +4°C° 0 mm 3 mps 756 mmHg 93%
    07:00 +4°C° 0 mm 3 mps 756 mmHg 93%
    08:00 +5°C° 0 mm 4 mps 756 mmHg 89%
    09:00 +6°C° 0 mm 4 mps 756 mmHg 84%
    10:00 +7°C° 0 mm 5 mps 756 mmHg 80%
    11:00 +8°C° 0 mm 5 mps 756 mmHg 76%
    12:00 +9°C° 0 mm 5 mps 756 mmHg 72%
    13:00 +10°C° 0 mm 5 mps 755 mmHg 68%
    14:00 +11°C° 0 mm 4 mps 755 mmHg 72%
    15:00 +10°C° 0 mm 4 mps 755 mmHg 76%
    16:00 +9°C° 0 mm 3 mps 755 mmHg 81%
    17:00 +9°C° 0 mm 3 mps 755 mmHg 83%
    18:00 +8°C° 0 mm 3 mps 756 mmHg 85%
    19:00 +8°C° 0 mm 3 mps 756 mmHg 87%
    20:00 +8°C° 0 mm 3 mps 756 mmHg 87%
    21:00 +7°C° 0 mm 2 mps 756 mmHg 88%
    22:00 +7°C° 0 mm 2 mps 757 mmHg 88%
    23:00 +7°C° 0 mm 2 mps 757 mmHg 89%
    Show more